Regional Weather Roundup
Issued by NWS

Home | Current Version | Previous Version | Graphics & Text | Print | Product List | Glossary On
Versions: 1 2 3 4 5 6 7 8 9 10 11 12 13 14 15 16 17 18 19 20 21 22 23 24 25 26 27 28 29 30 31 32 33 34 35 36 37 38 39 40 41 42 43 44 45 46 47 48 49 50
000
ASUS43 KFSD 040910
RWRSD

WEATHER ROUNDUP FOR SOUTH DAKOTA
NATIONAL WEATHER SERVICE SIOUX FALLS SD
300 AM CST SUN DEC 04 2016

NOTE: "FAIR" INDICATES FEW OR NO CLOUDS BELOW 12,000 FEET WITH NO
SIGNIFICANT WEATHER AND/OR OBSTRUCTIONS TO VISIBILITY.


SDZ001>005-009-010-012>017-041000-
NORTHWEST AND NORTH CENTRAL SOUTH DAKOTA

CITY           SKY/WX    TMP DP  RH WIND       PRES   REMARKS
BUFFALO          N/A     28  22  78 W12       29.78R WCI  18
FAITH            N/A     28  24  85 W14       29.85R WCI  17
MOBRIDGE       CLEAR     34  30  85 W5        29.80R WCI  30
$$

SDZ012>016-024>037-041>051-057-063-072>074-041000-
SOUTHWEST AND SOUTH CENTRAL SOUTH DAKOTA

CITY           SKY/WX    TMP DP  RH WIND       PRES   REMARKS
RAPID CTY ARPT CLEAR     32  23  69 W13       29.91R WCI  22
PIERRE         CLEAR     26  21  81 CALM      29.86S
CUSTER         PTCLDY    22  15  75 W3        29.88S
ELLSWORTH AFB  PTCLDY    30  24  79 W9        29.89S WCI  21
PHILIP         PTCLDY    27  23  85 W7        29.90S WCI  19
PINE RIDGE     MOCLDY    29  20  69 W6        29.95S WCI  23
SPEARFISH      CLOUDY    34  21  60 W14G20    29.89S WCI  24
WINNER         FAIR      31  23  72 W9        29.91S WCI  23
$$

SDZ004>011-016>023-039-040-041000-
NORTHEAST SOUTH DAKOTA

CITY           SKY/WX    TMP DP  RH WIND       PRES   REMARKS
ABERDEEN       PTCLDY    29  25  85 S10       29.84F WCI  20
WATERTOWN      CLOUDY    32  31  96 S15       29.85F WCI  22
BROOKINGS      CLOUDY    33  31  92 S15       29.89F WCI  23
SISSETON         N/A     34  32  92 S12       29.85F WCI  25
$$

SDZ017-020-022-023-036>040-048>070-041000-
SOUTHEAST SOUTH DAKOTA

CITY           SKY/WX    TMP DP  RH WIND       PRES   REMARKS
SIOUX FALLS    CLOUDY    35  33  92 S13       29.94F WCI  26
HURON          PTCLDY    29  29 100 S7        29.88F WCI  22
CHAMBERLAIN    PTCLDY    31  26  81 W7        29.90S WCI  24
MITCHELL       CLEAR     30  28  92 S3        29.91F
YANKTON        PTCLDY    34  28  80 S5        29.94F WCI  30
$$

ABBREVIATIONS USED IN REMARKS
   TC - TEMPERATURE IN CELSIUS
  WCI - WIND CHILL INDEX
   HX - HEAT INDEX
  VSB - VISIBILITY




USA.gov is the U.S. government's official web portal to all federal, state and local government web resources and services.